CCR weather

Buchanan Field
Concord, California, United States

Public forecast

Using degrees Fahrenheit for public forecast. Weather courtesy of forecast.io.

Current aviation weather report (METAR) for Buchanan Field

Retrieved 2020/02/16 19:53 UTC (1 hour ago):

KCCR 161953Z 30011KT 10SM CLR 17/05 A3023 RMK AO2 SLP222 T01670050

Aviation forecast (TAF) for Buchanan Field

Forecast is more than 12 hours old.

Retrieved 2016/02/08 00:21 UTC (4 years ago):

TAF KCCR 082320Z 0900/0924 06006KT P6SM SKC FM090600 VRB03KT P6SM SKC FM091800 04009KT P6SM SKC